Wetterdaten: Freitag, 08.04.2016
Datum Zeit Auen-Temp. Temp gefhlt Luftfeuchte Luftdruck Regen Wind Richtung Richtung Sonnenschein Taupunkt Windben
08.04.2016 00:00 2,6 C 2,3 C 87 % 1012,9 hPa 0,0 mm 4,8 km/h (1 Bft) S 180 0 min 0,7 C 5,4 km/h (1 Bft)
08.04.2016 00:05 2,6 C 2,3 C 87 % 1012,9 hPa 0,0 mm 4,2 km/h (1 Bft) SW 225 0 min 0,7 C 8,9 km/h (2 Bft)
08.04.2016 00:10 2,6 C 2,3 C 87 % 1013,0 hPa 0,0 mm 5,4 km/h (1 Bft) W 270 0 min 0,7 C 8,0 km/h (2 Bft)
08.04.2016 00:15 2,6 C 2,3 C 87 % 1013,0 hPa 0,0 mm 5,7 km/h (1 Bft) S 180 0 min 0,7 C 11,9 km/h (2 Bft)
08.04.2016 00:20 2,7 C 2,4 C 87 % 1013,0 hPa 0,0 mm 3,9 km/h (1 Bft) W-SW 247 0 min 0,8 C 3,0 km/h (1 Bft)
08.04.2016 00:25 2,6 C 2,4 C 88 % 1013,0 hPa 0,0 mm 3,3 km/h (1 Bft) S-SO 157 0 min 0,8 C 9,2 km/h (2 Bft)
08.04.2016 00:30 2,6 C 2,4 C 88 % 1013,2 hPa 0,0 mm 3,9 km/h (1 Bft) SW 225 0 min 0,8 C 3,6 km/h (1 Bft)
08.04.2016 00:35 2,6 C 2,4 C 88 % 1013,2 hPa 0,0 mm 4,5 km/h (1 Bft) S-SW 202 0 min 0,8 C 7,2 km/h (2 Bft)
08.04.2016 00:40 2,6 C 2,4 C 88 % 1013,2 hPa 0,0 mm 4,2 km/h (1 Bft) W 270 0 min 0,8 C 0,0 km/h (0 Bft)
08.04.2016 00:45 2,7 C 2,4 C 88 % 1013,2 hPa 0,0 mm 2,1 km/h (1 Bft) W-SW 247 0 min 0,9 C 0,0 km/h (0 Bft)
08.04.2016 00:48 2,7 C 2,4 C 88 % 1013,2 hPa 0,7 mm 0,9 km/h (0 Bft) S-SW 202 0 min 0,9 C 6,6 km/h (2 Bft)
08.04.2016 00:50 2,7 C 2,4 C 88 % 1013,2 hPa 0,0 mm 0,9 km/h (0 Bft) S-SW 202 0 min 0,9 C 6,6 km/h (2 Bft)
08.04.2016 00:55 2,6 C 2,4 C 85 % 1013,2 hPa 0,0 mm 4,2 km/h (1 Bft) SW 225 0 min 0,3 C 5,7 km/h (1 Bft)
08.04.2016 01:00 2,6 C 2,3 C 88 % 1013,2 hPa 0,0 mm 5,7 km/h (1 Bft) S 180 0 min 0,8 C 0,0 km/h (0 Bft)
08.04.2016 01:05 2,6 C 2,4 C 88 % 1013,2 hPa 0,0 mm 2,1 km/h (1 Bft) W-NW 292 0 min 0,8 C 0,0 km/h (0 Bft)
08.04.2016 01:10 2,6 C 2,4 C 85 % 1012,9 hPa 0,0 mm 0,3 km/h (0 Bft) S 180 0 min 0,3 C 0,0 km/h (0 Bft)
08.04.2016 01:15 2,6 C 2,4 C 88 % 1012,9 hPa 0,0 mm 0,0 km/h (0 Bft) NO 45 0 min 0,8 C 0,0 km/h (0 Bft)
08.04.2016 01:20 2,6 C 2,4 C 85 % 1012,9 hPa 0,0 mm 0,0 km/h (0 Bft) N-NW 337 0 min 0,3 C 0,0 km/h (0 Bft)
08.04.2016 01:25 2,6 C 2,4 C 85 % 1012,9 hPa 0,0 mm 0,0 km/h (0 Bft) W-SW 247 0 min 0,3 C 0,0 km/h (0 Bft)
08.04.2016 01:30 2,6 C 2,4 C 85 % 1012,7 hPa 0,0 mm 0,0 km/h (0 Bft) S-SO 157 0 min 0,3 C 0,0 km/h (0 Bft)
08.04.2016 01:35 2,6 C 2,4 C 88 % 1012,7 hPa 0,0 mm 0,0 km/h (0 Bft) O-NO 67 0 min 0,8 C 0,0 km/h (0 Bft)
08.04.2016 01:40 2,6 C 2,4 C 85 % 1012,7 hPa 0,0 mm 0,0 km/h (0 Bft) O-NO 67 0 min 0,3 C 0,0 km/h (0 Bft)
08.04.2016 01:45 2,6 C 2,4 C 88 % 1012,7 hPa 0,0 mm 0,0 km/h (0 Bft) O-SO 112 0 min 0,8 C 0,0 km/h (0 Bft)
08.04.2016 01:50 2,6 C 2,4 C 85 % 1012,2 hPa 0,0 mm 0,0 km/h (0 Bft) O-NO 67 0 min 0,3 C 0,0 km/h (0 Bft)
08.04.2016 01:55 2,6 C 2,4 C 85 % 1012,2 hPa 0,0 mm 0,0 km/h (0 Bft) SO 135 0 min 0,3 C 0,0 km/h (0 Bft)
08.04.2016 02:00 2,6 C 2,5 C 85 % 1012,2 hPa 0,0 mm 0,0 km/h (0 Bft) N-NO 22 0 min 0,3 C 0,0 km/h (0 Bft)
08.04.2016 02:05 2,6 C 2,4 C 88 % 1012,2 hPa 0,0 mm 0,0 km/h (0 Bft) W 270 0 min 0,8 C 0,0 km/h (0 Bft)
08.04.2016 02:10 2,6 C 2,4 C 88 % 1012,1 hPa 0,0 mm 0,0 km/h (0 Bft) S 180 0 min 0,8 C 0,0 km/h (0 Bft)
08.04.2016 02:15 2,6 C 2,4 C 88 % 1012,1 hPa 0,0 mm 0,0 km/h (0 Bft) NW 315 0 min 0,8 C 0,0 km/h (0 Bft)
08.04.2016 02:20 2,6 C 2,4 C 88 % 1012,1 hPa 0,0 mm 0,0 km/h (0 Bft) S-SW 202 0 min 0,8 C 0,0 km/h (0 Bft)
08.04.2016 02:25 2,6 C 2,4 C 88 % 1012,1 hPa 0,0 mm 0,0 km/h (0 Bft) W-SW 247 0 min 0,8 C 0,0 km/h (0 Bft)
08.04.2016 02:30 2,6 C 2,4 C 88 % 1012,1 hPa 0,0 mm 0,0 km/h (0 Bft) O-SO 112 0 min 0,8 C 0,0 km/h (0 Bft)
08.04.2016 02:35 2,6 C 2,4 C 88 % 1012,1 hPa 0,0 mm 0,0 km/h (0 Bft) W 270 0 min 0,8 C 0,0 km/h (0 Bft)
08.04.2016 02:40 2,6 C 2,4 C 88 % 1012,1 hPa 0,0 mm 0,0 km/h (0 Bft) SW 225 0 min 0,8 C 0,0 km/h (0 Bft)
08.04.2016 02:45 2,6 C 2,4 C 86 % 1012,1 hPa 0,0 mm 0,0 km/h (0 Bft) N-NO 22 0 min 0,5 C 0,0 km/h (0 Bft)
08.04.2016 02:50 2,6 C 2,4 C 86 % 1011,9 hPa 0,0 mm 0,0 km/h (0 Bft) O-NO 67 0 min 0,5 C 0,0 km/h (0 Bft)
08.04.2016 02:55 2,6 C 2,4 C 86 % 1011,9 hPa 0,0 mm 0,0 km/h (0 Bft) O-NO 67 0 min 0,5 C 0,0 km/h (0 Bft)
08.04.2016 03:00 2,6 C 2,4 C 86 % 1011,9 hPa 0,0 mm 0,0 km/h (0 Bft) N-NO 22 0 min 0,5 C 0,0 km/h (0 Bft)
08.04.2016 03:05 2,6 C 2,4 C 89 % 1011,9 hPa 0,0 mm 0,0 km/h (0 Bft) S 180 0 min 1,0 C 0,0 km/h (0 Bft)
08.04.2016 03:10 2,6 C 2,4 C 89 % 1011,9 hPa 0,0 mm 0,0 km/h (0 Bft) NO 45 0 min 1,0 C 0,0 km/h (0 Bft)
08.04.2016 03:15 2,6 C 2,4 C 89 % 1011,9 hPa 0,0 mm 0,0 km/h (0 Bft) W-SW 247 0 min 1,0 C 0,0 km/h (0 Bft)
08.04.2016 03:20 2,6 C 2,4 C 86 % 1011,9 hPa 0,0 mm 0,0 km/h (0 Bft) N-NO 22 0 min 0,5 C 0,0 km/h (0 Bft)
08.04.2016 03:25 2,6 C 2,4 C 86 % 1011,9 hPa 0,0 mm 0,0 km/h (0 Bft) N-NO 22 0 min 0,5 C 0,0 km/h (0 Bft)
08.04.2016 03:30 2,6 C 2,4 C 86 % 1011,8 hPa 0,0 mm 0,0 km/h (0 Bft) SO 135 0 min 0,5 C 0,0 km/h (0 Bft)
08.04.2016 03:35 2,6 C 2,4 C 86 % 1011,8 hPa 0,0 mm 0,0 km/h (0 Bft) O-NO 67 0 min 0,5 C 0,0 km/h (0 Bft)
08.04.2016 03:40 2,6 C 2,4 C 86 % 1011,8 hPa 0,0 mm 0,0 km/h (0 Bft) NO 45 0 min 0,5 C 0,0 km/h (0 Bft)
08.04.2016 03:45 2,6 C 2,4 C 86 % 1011,8 hPa 0,0 mm 0,0 km/h (0 Bft) S-SO 157 0 min 0,5 C 0,0 km/h (0 Bft)
08.04.2016 03:48 2,6 C 2,4 C 89 % 1011,8 hPa 0,0 mm 0,3 km/h (0 Bft) SO 135 0 min 1,0 C 0,0 km/h (0 Bft)
08.04.2016 03:51 2,6 C 2,4 C 89 % 1011,8 hPa 0,0 mm 0,3 km/h (0 Bft) SO 135 0 min 1,0 C 0,0 km/h (0 Bft)
08.04.2016 03:55 2,5 C 2,4 C 86 % 1011,8 hPa 0,0 mm 0,3 km/h (0 Bft) O-SO 112 0 min 0,4 C 0,0 km/h (0 Bft)
08.04.2016 04:00 2,5 C 2,4 C 86 % 1011,8 hPa 0,0 mm 0,0 km/h (0 Bft) SO 135 0 min 0,4 C 0,0 km/h (0 Bft)
08.04.2016 04:05 2,5 C 2,3 C 89 % 1011,8 hPa 0,0 mm 0,0 km/h (0 Bft) S-SO 157 0 min 0,9 C 0,0 km/h (0 Bft)
08.04.2016 04:10 2,5 C 2,3 C 89 % 1011,6 hPa 0,0 mm 0,0 km/h (0 Bft) S-SO 157 0 min 0,9 C 0,0 km/h (0 Bft)
08.04.2016 04:15 2,5 C 2,3 C 89 % 1011,6 hPa 0,0 mm 0,0 km/h (0 Bft) S-SO 157 0 min 0,9 C 0,0 km/h (0 Bft)
08.04.2016 04:20 2,5 C 2,3 C 89 % 1011,6 hPa 0,0 mm 0,0 km/h (0 Bft) W-NW 292 0 min 0,9 C 0,0 km/h (0 Bft)
08.04.2016 04:25 2,5 C 2,3 C 89 % 1011,6 hPa 0,0 mm 0,0 km/h (0 Bft) NO 45 0 min 0,9 C 0,0 km/h (0 Bft)
08.04.2016 04:30 2,5 C 2,3 C 89 % 1011,6 hPa 0,0 mm 0,0 km/h (0 Bft) N 360 0 min 0,9 C 0,0 km/h (0 Bft)
08.04.2016 04:35 2,5 C 2,3 C 89 % 1011,6 hPa 0,0 mm 0,0 km/h (0 Bft) W-SW 247 0 min 0,9 C 0,0 km/h (0 Bft)
08.04.2016 04:40 2,5 C 2,4 C 86 % 1011,6 hPa 0,7 mm 0,0 km/h (0 Bft) W 270 0 min 0,4 C 0,0 km/h (0 Bft)
08.04.2016 04:45 2,6 C 2,4 C 89 % 1011,6 hPa 0,0 mm 0,6 km/h (0 Bft) NW 315 0 min 1,0 C 0,0 km/h (0 Bft)
08.04.2016 04:50 2,5 C 2,3 C 89 % 1011,4 hPa 0,0 mm 0,9 km/h (0 Bft) NW 315 0 min 0,9 C 0,0 km/h (0 Bft)
08.04.2016 04:55 2,4 C 2,2 C 89 % 1011,4 hPa 0,0 mm 0,6 km/h (0 Bft) NW 315 0 min 0,8 C 0,0 km/h (0 Bft)
08.04.2016 05:00 2,4 C 2,1 C 89 % 1011,4 hPa 0,0 mm 0,6 km/h (0 Bft) S 180 0 min 0,8 C 0,0 km/h (0 Bft)
08.04.2016 05:05 2,3 C 2,1 C 89 % 1011,4 hPa 0,0 mm 0,9 km/h (0 Bft) NW 315 0 min 0,7 C 0,0 km/h (0 Bft)
08.04.2016 05:10 2,3 C 2,0 C 89 % 1011,4 hPa 0,0 mm 1,2 km/h (1 Bft) NW 315 0 min 0,7 C 4,2 km/h (1 Bft)
08.04.2016 05:15 2,1 C 1,9 C 89 % 1011,4 hPa 0,7 mm 0,9 km/h (0 Bft) W-NW 292 0 min 0,5 C 0,0 km/h (0 Bft)
08.04.2016 05:20 2,0 C 1,8 C 86 % 1011,4 hPa 0,0 mm 0,9 km/h (0 Bft) N-NO 22 0 min -0,1 C 0,0 km/h (0 Bft)
08.04.2016 05:25 1,9 C 1,7 C 89 % 1011,4 hPa 0,0 mm 0,3 km/h (0 Bft) O 90 0 min 0,3 C 0,0 km/h (0 Bft)
08.04.2016 05:30 1,9 C 1,7 C 89 % 1011,3 hPa 0,0 mm 0,0 km/h (0 Bft) O-NO 67 0 min 0,3 C 0,0 km/h (0 Bft)
08.04.2016 05:35 1,9 C 1,6 C 89 % 1011,3 hPa 0,0 mm 0,0 km/h (0 Bft) N-NW 337 0 min 0,3 C 0,0 km/h (0 Bft)
08.04.2016 05:40 1,8 C 1,6 C 86 % 1011,3 hPa 0,0 mm 0,0 km/h (0 Bft) N-NO 22 0 min -0,3 C 0,0 km/h (0 Bft)
08.04.2016 05:45 1,8 C 1,6 C 86 % 1011,3 hPa 0,0 mm 0,0 km/h (0 Bft) N-NW 337 0 min -0,3 C 0,0 km/h (0 Bft)
08.04.2016 05:50 1,8 C 1,6 C 86 % 1011,1 hPa 0,0 mm 0,0 km/h (0 Bft) NO 45 0 min -0,3 C 0,0 km/h (0 Bft)
08.04.2016 05:55 1,7 C 1,4 C 89 % 1011,1 hPa 0,0 mm 0,9 km/h (0 Bft) NW 315 0 min 0,1 C 0,0 km/h (0 Bft)
08.04.2016 06:00 1,7 C 1,4 C 89 % 1011,1 hPa 0,0 mm 0,9 km/h (0 Bft) W-NW 292 0 min 0,1 C 0,0 km/h (0 Bft)
08.04.2016 06:05 1,7 C 1,5 C 86 % 1011,1 hPa 0,0 mm 0,0 km/h (0 Bft) N-NW 337 0 min -0,4 C 0,0 km/h (0 Bft)
08.04.2016 06:10 1,7 C 1,4 C 89 % 1011,2 hPa 0,0 mm 0,0 km/h (0 Bft) W-NW 292 0 min 0,1 C 0,0 km/h (0 Bft)
08.04.2016 06:15 1,7 C 1,4 C 89 % 1011,2 hPa 0,0 mm 0,0 km/h (0 Bft) NW 315 0 min 0,1 C 0,0 km/h (0 Bft)
08.04.2016 06:20 1,7 C 1,5 C 86 % 1011,2 hPa 0,0 mm 0,0 km/h (0 Bft) NW 315 0 min -0,4 C 0,0 km/h (0 Bft)
08.04.2016 06:25 1,7 C 1,4 C 89 % 1011,2 hPa 0,0 mm 0,0 km/h (0 Bft) S 180 0 min 0,1 C 0,0 km/h (0 Bft)
08.04.2016 06:30 1,6 C 1,4 C 86 % 1011,0 hPa 0,0 mm 0,0 km/h (0 Bft) S 180 0 min -0,5 C 0,0 km/h (0 Bft)
08.04.2016 06:35 1,6 C 1,4 C 86 % 1011,0 hPa 0,0 mm 0,0 km/h (0 Bft) SO 135 0 min -0,5 C 0,0 km/h (0 Bft)
08.04.2016 06:40 1,6 C 1,4 C 86 % 1011,0 hPa 0,0 mm 0,0 km/h (0 Bft) S-SO 157 0 min -0,5 C 0,0 km/h (0 Bft)
08.04.2016 06:45 1,6 C 1,4 C 89 % 1011,0 hPa 0,0 mm 0,0 km/h (0 Bft) S-SO 157 0 min -0,0 C 0,0 km/h (0 Bft)
08.04.2016 06:50 1,6 C 1,4 C 86 % 1010,9 hPa 0,0 mm 0,0 km/h (0 Bft) W-SW 247 0 min -0,5 C 0,0 km/h (0 Bft)
08.04.2016 06:51 1,6 C 1,4 C 86 % 1010,9 hPa 0,0 mm 0,0 km/h (0 Bft) W-SW 247 0 min -0,5 C 0,0 km/h (0 Bft)
08.04.2016 06:55 1,6 C 1,3 C 89 % 1010,9 hPa 0,0 mm 0,0 km/h (0 Bft) SW 225 0 min -0,0 C 0,0 km/h (0 Bft)
08.04.2016 07:00 1,6 C 1,3 C 89 % 1010,9 hPa 0,0 mm 0,0 km/h (0 Bft) W-SW 247 0 min -0,0 C 0,0 km/h (0 Bft)
08.04.2016 07:05 1,6 C 1,4 C 86 % 1010,9 hPa 0,0 mm 0,0 km/h (0 Bft) SO 135 0 min -0,5 C 0,0 km/h (0 Bft)
08.04.2016 07:10 1,6 C 1,4 C 86 % 1010,9 hPa 0,0 mm 0,0 km/h (0 Bft) W-NW 292 0 min -0,5 C 0,0 km/h (0 Bft)
08.04.2016 07:15 1,6 C 1,5 C 86 % 1010,9 hPa 0,0 mm 0,0 km/h (0 Bft) S-SW 202 0 min -0,5 C 0,0 km/h (0 Bft)
08.04.2016 07:20 1,7 C 1,6 C 86 % 1010,9 hPa 0,0 mm 0,0 km/h (0 Bft) O-SO 112 0 min -0,4 C 0,0 km/h (0 Bft)
08.04.2016 07:25 1,7 C 1,6 C 86 % 1010,9 hPa 0,0 mm 0,0 km/h (0 Bft) SO 135 0 min -0,4 C 0,0 km/h (0 Bft)
08.04.2016 07:30 1,7 C 1,7 C 86 % 1011,1 hPa 0,0 mm 0,0 km/h (0 Bft) W-NW 292 0 min -0,4 C 0,0 km/h (0 Bft)
08.04.2016 07:35 1,7 C 1,7 C 86 % 1011,1 hPa 0,0 mm 0,0 km/h (0 Bft) N-NW 337 0 min -0,4 C 0,0 km/h (0 Bft)
08.04.2016 07:40 1,8 C 1,8 C 86 % 1011,1 hPa 0,0 mm 0,0 km/h (0 Bft) NW 315 0 min -0,3 C 0,0 km/h (0 Bft)
08.04.2016 07:45 1,8 C 1,8 C 86 % 1011,1 hPa 0,0 mm 0,0 km/h (0 Bft) NW 315 0 min -0,3 C 0,0 km/h (0 Bft)
08.04.2016 07:50 1,8 C 1,9 C 86 % 1011,1 hPa 0,0 mm 0,0 km/h (0 Bft) W 270 0 min -0,3 C 0,0 km/h (0 Bft)
08.04.2016 07:55 1,9 C 1,9 C 86 % 1011,1 hPa 0,0 mm 0,0 km/h (0 Bft) O 90 0 min -0,2 C 0,0 km/h (0 Bft)
08.04.2016 08:00 1,9 C 1,9 C 86 % 1011,1 hPa 0,0 mm 0,0 km/h (0 Bft) O-SO 112 0 min -0,2 C 0,0 km/h (0 Bft)
08.04.2016 08:05 2,0 C 2,0 C 86 % 1011,1 hPa 0,0 mm 0,0 km/h (0 Bft) O-NO 67 0 min -0,1 C 0,0 km/h (0 Bft)
08.04.2016 08:10 2,0 C 2,1 C 86 % 1011,0 hPa 0,0 mm 0,0 km/h (0 Bft) O-NO 67 0 min -0,1 C 0,0 km/h (0 Bft)
08.04.2016 08:15 2,2 C 2,2 C 86 % 1011,0 hPa 0,0 mm 0,3 km/h (0 Bft) N-NW 337 0 min 0,1 C 3,6 km/h (1 Bft)
08.04.2016 08:20 2,2 C 2,2 C 86 % 1011,0 hPa 0,0 mm 0,3 km/h (0 Bft) N-NO 22 0 min 0,1 C 0,0 km/h (0 Bft)
08.04.2016 08:25 2,2 C 2,3 C 86 % 1011,0 hPa 0,7 mm 1,2 km/h (1 Bft) N-NO 22 0 min 0,1 C 3,3 km/h (1 Bft)
08.04.2016 08:30 2,3 C 2,3 C 86 % 1011,1 hPa 0,0 mm 1,5 km/h (1 Bft) N-NO 22 0 min 0,2 C 4,2 km/h (1 Bft)
08.04.2016 08:35 2,3 C 2,4 C 86 % 1011,1 hPa 0,0 mm 3,9 km/h (1 Bft) O-NO 67 0 min 0,2 C 7,2 km/h (2 Bft)
08.04.2016 08:40 2,3 C 2,3 C 86 % 1011,1 hPa 0,0 mm 6,0 km/h (2 Bft) N-NO 22 0 min 0,2 C 9,2 km/h (2 Bft)
08.04.2016 08:45 2,4 C 2,2 C 86 % 1011,1 hPa 0,0 mm 8,0 km/h (2 Bft) O-NO 67 0 min 0,3 C 13,7 km/h (3 Bft)
08.04.2016 08:50 2,4 C 2,1 C 86 % 1010,9 hPa 0,0 mm 8,3 km/h (2 Bft) NO 45 0 min 0,3 C 7,7 km/h (2 Bft)
08.04.2016 08:55 2,4 C 2,4 C 86 % 1010,9 hPa 0,0 mm 7,2 km/h (2 Bft) N-NO 22 0 min 0,3 C 14,0 km/h (3 Bft)
08.04.2016 09:00 2,4 C 2,3 C 86 % 1010,9 hPa 0,0 mm 6,9 km/h (2 Bft) NO 45 0 min 0,3 C 8,9 km/h (2 Bft)
08.04.2016 09:05 2,5 C 2,3 C 86 % 1010,9 hPa 0,0 mm 7,5 km/h (2 Bft) N-NO 22 0 min 0,4 C 8,3 km/h (2 Bft)
08.04.2016 09:10 2,5 C 2,4 C 86 % 1010,8 hPa 0,0 mm 7,7 km/h (2 Bft) NO 45 0 min 0,4 C 8,6 km/h (2 Bft)
08.04.2016 09:15 2,6 C 2,6 C 86 % 1010,8 hPa 0,0 mm 6,3 km/h (2 Bft) NO 45 0 min 0,5 C 8,0 km/h (2 Bft)
08.04.2016 09:20 2,6 C 2,7 C 86 % 1010,8 hPa 0,0 mm 6,9 km/h (2 Bft) NO 45 0 min 0,5 C 10,4 km/h (2 Bft)
08.04.2016 09:25 2,6 C 2,9 C 86 % 1010,8 hPa 0,0 mm 5,7 km/h (1 Bft) O 90 0 min 0,5 C 3,6 km/h (1 Bft)
08.04.2016 09:30 2,7 C 3,1 C 86 % 1010,6 hPa 0,0 mm 4,2 km/h (1 Bft) O-NO 67 0 min 0,6 C 5,4 km/h (1 Bft)
08.04.2016 09:35 2,7 C 3,0 C 86 % 1010,6 hPa 0,0 mm 5,7 km/h (1 Bft) NO 45 0 min 0,6 C 16,7 km/h (3 Bft)
08.04.2016 09:40 2,7 C 2,8 C 86 % 1010,6 hPa 0,0 mm 7,5 km/h (2 Bft) NO 45 0 min 0,6 C 10,1 km/h (2 Bft)
08.04.2016 09:45 2,7 C 2,8 C 86 % 1010,6 hPa 0,0 mm 8,0 km/h (2 Bft) N-NO 22 0 min 0,6 C 8,9 km/h (2 Bft)
08.04.2016 09:50 2,7 C 2,9 C 86 % 1010,6 hPa 0,0 mm 7,7 km/h (2 Bft) O-NO 67 0 min 0,6 C 13,7 km/h (3 Bft)
08.04.2016 09:52 2,7 C 2,9 C 86 % 1010,6 hPa 0,0 mm 7,7 km/h (2 Bft) O-NO 67 0 min 0,6 C 13,7 km/h (3 Bft)
08.04.2016 09:55 2,8 C 3,0 C 86 % 1010,6 hPa 0,0 mm 7,7 km/h (2 Bft) NO 45 0 min 0,7 C 5,7 km/h (1 Bft)
08.04.2016 10:00 2,8 C 3,0 C 86 % 1010,6 hPa 0,0 mm 7,2 km/h (2 Bft) N-NO 22 0 min 0,7 C 10,4 km/h (2 Bft)
08.04.2016 10:05 2,8 C 3,1 C 86 % 1010,6 hPa 0,0 mm 5,7 km/h (1 Bft) NO 45 0 min 0,7 C 4,5 km/h (1 Bft)
08.04.2016 10:10 2,9 C 3,1 C 86 % 1010,5 hPa 0,0 mm 6,6 km/h (2 Bft) N-NO 22 0 min 0,8 C 10,4 km/h (2 Bft)
08.04.2016 10:15 2,9 C 3,2 C 86 % 1010,5 hPa 0,0 mm 7,5 km/h (2 Bft) NO 45 0 min 0,8 C 9,8 km/h (2 Bft)
08.04.2016 10:20 2,9 C 3,0 C 86 % 1010,5 hPa 0,0 mm 8,3 km/h (2 Bft) NO 45 0 min 0,8 C 13,1 km/h (3 Bft)
08.04.2016 10:25 2,9 C 3,0 C 86 % 1010,5 hPa 0,0 mm 8,0 km/h (2 Bft) NO 45 0 min 0,8 C 9,5 km/h (2 Bft)
08.04.2016 10:30 3,0 C 3,2 C 85 % 1010,8 hPa 0,0 mm 6,9 km/h (2 Bft) O-NO 67 0 min 0,7 C 6,0 km/h (2 Bft)
08.04.2016 10:35 3,0 C 3,4 C 85 % 1010,8 hPa 0,0 mm 6,3 km/h (2 Bft) S 180 0 min 0,7 C 8,0 km/h (2 Bft)
08.04.2016 10:40 3,1 C 3,4 C 85 % 1010,8 hPa 0,0 mm 6,3 km/h (2 Bft) O-NO 67 0 min 0,8 C 6,9 km/h (2 Bft)
08.04.2016 10:45 3,1 C 3,4 C 85 % 1010,8 hPa 0,0 mm 8,3 km/h (2 Bft) NO 45 0 min 0,8 C 10,4 km/h (2 Bft)
08.04.2016 10:50 3,3 C 3,3 C 85 % 1010,6 hPa 0,0 mm 8,6 km/h (2 Bft) NO 45 0 min 1,0 C 6,3 km/h (2 Bft)
08.04.2016 10:55 3,3 C 3,4 C 85 % 1010,6 hPa 0,0 mm 8,3 km/h (2 Bft) O-NO 67 0 min 1,0 C 12,5 km/h (3 Bft)
08.04.2016 11:00 3,3 C 3,3 C 85 % 1010,6 hPa 0,0 mm 8,0 km/h (2 Bft) N-NO 22 0 min 1,0 C 7,7 km/h (2 Bft)
08.04.2016 11:05 3,3 C 3,4 C 85 % 1010,6 hPa 0,0 mm 8,0 km/h (2 Bft) NO 45 0 min 1,0 C 11,9 km/h (2 Bft)
08.04.2016 11:10 3,3 C 3,3 C 85 % 1010,5 hPa 0,0 mm 8,9 km/h (2 Bft) O-NO 67 0 min 1,0 C 12,5 km/h (3 Bft)
08.04.2016 11:15 3,3 C 3,2 C 85 % 1010,5 hPa 0,0 mm 9,5 km/h (2 Bft) O-NO 67 0 min 1,0 C 12,5 km/h (3 Bft)
08.04.2016 11:20 3,3 C 3,3 C 85 % 1010,5 hPa 0,0 mm 9,2 km/h (2 Bft) O-NO 67 0 min 1,0 C 13,4 km/h (3 Bft)
08.04.2016 11:25 3,5 C 3,7 C 85 % 1010,5 hPa 0,0 mm 7,2 km/h (2 Bft) O-NO 67 0 min 1,2 C 11,3 km/h (2 Bft)
08.04.2016 11:30 3,5 C 3,7 C 84 % 1010,6 hPa 0,0 mm 6,6 km/h (2 Bft) NO 45 0 min 1,1 C 4,8 km/h (1 Bft)
08.04.2016 11:35 3,5 C 3,8 C 84 % 1010,6 hPa 0,0 mm 6,3 km/h (2 Bft) O-NO 67 0 min 1,1 C 7,5 km/h (2 Bft)
08.04.2016 11:40 3,5 C 3,9 C 84 % 1010,6 hPa 0,0 mm 5,4 km/h (1 Bft) O-NO 67 0 min 1,1 C 3,3 km/h (1 Bft)
08.04.2016 11:45 3,6 C 4,1 C 84 % 1010,6 hPa 0,0 mm 4,5 km/h (1 Bft) N-NW 337 0 min 1,2 C 7,2 km/h (2 Bft)
08.04.2016 11:50 3,6 C 4,2 C 84 % 1010,4 hPa 0,0 mm 4,8 km/h (1 Bft) O-NO 67 0 min 1,2 C 6,0 km/h (2 Bft)
08.04.2016 11:55 3,6 C 4,4 C 84 % 1010,4 hPa 0,0 mm 5,4 km/h (1 Bft) O-NO 67 0 min 1,2 C 9,8 km/h (2 Bft)
08.04.2016 12:00 3,7 C 4,4 C 84 % 1010,4 hPa 0,0 mm 5,1 km/h (1 Bft) O-NO 67 0 min 1,3 C 3,0 km/h (1 Bft)
08.04.2016 12:05 3,7 C 4,4 C 84 % 1010,4 hPa 0,0 mm 6,6 km/h (2 Bft) N-NO 22 0 min 1,3 C 17,6 km/h (3 Bft)
08.04.2016 12:10 3,8 C 4,4 C 84 % 1010,4 hPa 0,0 mm 7,2 km/h (2 Bft) NO 45 0 min 1,4 C 8,9 km/h (2 Bft)
08.04.2016 12:15 3,9 C 4,4 C 83 % 1010,4 hPa 0,0 mm 8,0 km/h (2 Bft) N-NO 22 0 min 1,3 C 10,1 km/h (2 Bft)
08.04.2016 12:20 3,9 C 4,9 C 83 % 1010,4 hPa 0,0 mm 7,2 km/h (2 Bft) O-NO 67 0 min 1,3 C 8,3 km/h (2 Bft)
08.04.2016 12:25 4,1 C 4,8 C 83 % 1010,4 hPa 0,0 mm 8,0 km/h (2 Bft) NO 45 0 min 1,5 C 11,6 km/h (2 Bft)
08.04.2016 12:30 3,9 C 4,8 C 83 % 1010,4 hPa 0,0 mm 7,7 km/h (2 Bft) NO 45 0 min 1,3 C 9,2 km/h (2 Bft)
08.04.2016 12:35 4,1 C 5,4 C 82 % 1010,4 hPa 0,0 mm 5,7 km/h (1 Bft) NO 45 0 min 1,3 C 5,4 km/h (1 Bft)
08.04.2016 12:40 4,2 C 5,3 C 82 % 1010,4 hPa 0,0 mm 6,0 km/h (2 Bft) NO 45 0 min 1,4 C 6,9 km/h (2 Bft)
08.04.2016 12:45 4,3 C 5,0 C 82 % 1010,4 hPa 0,0 mm 7,7 km/h (2 Bft) NO 45 0 min 1,5 C 7,7 km/h (2 Bft)
08.04.2016 12:50 4,4 C 5,2 C 82 % 1010,2 hPa 0,0 mm 8,0 km/h (2 Bft) N-NW 337 0 min 1,6 C 9,2 km/h (2 Bft)
08.04.2016 12:53 4,5 C 5,2 C 82 % 1010,2 hPa 0,0 mm 8,6 km/h (2 Bft) N-NO 22 0 min 1,7 C 12,2 km/h (2 Bft)
08.04.2016 12:55 4,5 C 5,2 C 82 % 1010,2 hPa 0,0 mm 8,6 km/h (2 Bft) N-NO 22 0 min 1,7 C 12,2 km/h (2 Bft)
08.04.2016 13:00 4,5 C 5,7 C 82 % 1010,2 hPa 0,0 mm 7,2 km/h (2 Bft) N-NW 337 0 min 1,7 C 8,9 km/h (2 Bft)
08.04.2016 13:05 4,5 C 5,8 C 82 % 1010,2 hPa 0,0 mm 7,2 km/h (2 Bft) O-NO 67 0 min 1,7 C 4,8 km/h (1 Bft)
08.04.2016 13:10 4,5 C 6,0 C 82 % 1010,1 hPa 0,0 mm 7,2 km/h (2 Bft) NO 45 0 min 1,7 C 8,3 km/h (2 Bft)
08.04.2016 13:15 4,5 C 6,0 C 82 % 1010,1 hPa 0,0 mm 7,2 km/h (2 Bft) O-NO 67 0 min 1,7 C 7,5 km/h (2 Bft)
08.04.2016 13:20 4,5 C 5,3 C 82 % 1010,1 hPa 0,0 mm 8,6 km/h (2 Bft) O-NO 67 0 min 1,7 C 5,4 km/h (1 Bft)
08.04.2016 13:25 4,5 C 5,1 C 82 % 1010,1 hPa 0,0 mm 8,6 km/h (2 Bft) O 90 0 min 1,7 C 8,3 km/h (2 Bft)
08.04.2016 13:30 4,5 C 5,2 C 82 % 1010,1 hPa 0,0 mm 7,7 km/h (2 Bft) NO 45 0 min 1,7 C 11,9 km/h (2 Bft)
08.04.2016 13:35 4,5 C 5,1 C 82 % 1010,1 hPa 0,0 mm 7,7 km/h (2 Bft) N-NW 337 0 min 1,7 C 9,2 km/h (2 Bft)
08.04.2016 13:40 4,5 C 5,3 C 82 % 1010,1 hPa 0,0 mm 7,2 km/h (2 Bft) N-NW 337 0 min 1,7 C 9,8 km/h (2 Bft)
08.04.2016 13:45 4,5 C 5,2 C 82 % 1010,1 hPa 0,0 mm 7,7 km/h (2 Bft) N-NW 337 0 min 1,7 C 14,0 km/h (3 Bft)
08.04.2016 13:50 4,5 C 5,0 C 82 % 1009,9 hPa 0,0 mm 9,2 km/h (2 Bft) SO 135 0 min 1,7 C 7,5 km/h (2 Bft)
08.04.2016 13:55 4,5 C 5,7 C 82 % 1009,9 hPa 0,0 mm 6,9 km/h (2 Bft) N-NO 22 0 min 1,7 C 7,2 km/h (2 Bft)
08.04.2016 14:00 4,5 C 6,0 C 82 % 1009,9 hPa 0,0 mm 5,1 km/h (1 Bft) NW 315 0 min 1,7 C 5,7 km/h (1 Bft)
08.04.2016 14:05 4,5 C 5,8 C 82 % 1009,9 hPa 0,0 mm 6,9 km/h (2 Bft) O-NO 67 0 min 1,7 C 7,2 km/h (2 Bft)
08.04.2016 14:10 4,5 C 5,7 C 82 % 1009,8 hPa 0,0 mm 7,2 km/h (2 Bft) NO 45 0 min 1,7 C 12,5 km/h (3 Bft)
08.04.2016 14:15 4,5 C 5,4 C 82 % 1009,8 hPa 0,0 mm 7,2 km/h (2 Bft) O-NO 67 0 min 1,7 C 9,8 km/h (2 Bft)
08.04.2016 14:20 4,5 C 5,0 C 82 % 1009,8 hPa 0,0 mm 8,0 km/h (2 Bft) NO 45 0 min 1,7 C 8,3 km/h (2 Bft)
08.04.2016 14:25 4,5 C 5,1 C 82 % 1009,8 hPa 0,0 mm 7,2 km/h (2 Bft) N-NO 22 0 min 1,7 C 9,8 km/h (2 Bft)
08.04.2016 14:30 4,5 C 5,2 C 82 % 1009,8 hPa 0,0 mm 6,9 km/h (2 Bft) NO 45 0 min 1,7 C 8,3 km/h (2 Bft)
08.04.2016 14:35 4,5 C 4,7 C 82 % 1009,8 hPa 0,0 mm 8,0 km/h (2 Bft) N-NO 22 0 min 1,7 C 6,9 km/h (2 Bft)
08.04.2016 14:40 4,5 C 4,8 C 79 % 1009,8 hPa 0,0 mm 7,7 km/h (2 Bft) NO 45 0 min 1,2 C 6,0 km/h (2 Bft)
08.04.2016 14:45 4,5 C 5,1 C 79 % 1009,8 hPa 0,0 mm 6,9 km/h (2 Bft) NO 45 0 min 1,2 C 9,2 km/h (2 Bft)
08.04.2016 14:50 4,5 C 5,2 C 79 % 1009,9 hPa 0,0 mm 6,6 km/h (2 Bft) O-NO 67 0 min 1,2 C 7,2 km/h (2 Bft)
08.04.2016 14:55 4,5 C 5,0 C 79 % 1009,9 hPa 0,0 mm 7,2 km/h (2 Bft) N-NW 337 0 min 1,2 C 8,0 km/h (2 Bft)
08.04.2016 15:00 4,5 C 4,8 C 79 % 1009,9 hPa 0,0 mm 7,5 km/h (2 Bft) NO 45 0 min 1,2 C 7,5 km/h (2 Bft)
08.04.2016 15:05 4,4 C 5,1 C 79 % 1009,9 hPa 0,0 mm 6,3 km/h (2 Bft) NO 45 0 min 1,1 C 8,9 km/h (2 Bft)
08.04.2016 15:10 4,4 C 4,9 C 79 % 1009,7 hPa 0,0 mm 6,3 km/h (2 Bft) NO 45 0 min 1,1 C 6,0 km/h (2 Bft)
08.04.2016 15:15 4,4 C 4,9 C 79 % 1009,7 hPa 0,0 mm 6,3 km/h (2 Bft) NO 45 0 min 1,1 C 9,2 km/h (2 Bft)
08.04.2016 15:20 4,5 C 5,1 C 79 % 1009,7 hPa 0,0 mm 5,1 km/h (1 Bft) O-NO 67 0 min 1,2 C 0,0 km/h (0 Bft)
08.04.2016 15:25 4,5 C 5,0 C 79 % 1009,7 hPa 0,0 mm 4,8 km/h (1 Bft) N-NO 22 0 min 1,2 C 8,3 km/h (2 Bft)
08.04.2016 15:30 4,5 C 4,9 C 79 % 1009,5 hPa 0,0 mm 4,8 km/h (1 Bft) O-NO 67 0 min 1,2 C 4,2 km/h (1 Bft)
08.04.2016 15:35 4,4 C 4,6 C 79 % 1009,5 hPa 0,0 mm 6,3 km/h (2 Bft) NO 45 0 min 1,1 C 12,5 km/h (3 Bft)
08.04.2016 15:40 4,3 C 4,4 C 79 % 1009,5 hPa 0,0 mm 7,2 km/h (2 Bft) W 270 0 min 1,0 C 4,5 km/h (1 Bft)
08.04.2016 15:45 4,3 C 4,2 C 79 % 1009,5 hPa 0,0 mm 8,0 km/h (2 Bft) O-SO 112 0 min 1,0 C 10,7 km/h (2 Bft)
08.04.2016 15:50 4,2 C 4,2 C 79 % 1009,5 hPa 0,0 mm 7,2 km/h (2 Bft) NO 45 0 min 0,9 C 10,7 km/h (2 Bft)
08.04.2016 15:53 4,2 C 4,0 C 79 % 1009,5 hPa 0,0 mm 7,2 km/h (2 Bft) O-NO 67 0 min 0,9 C 10,7 km/h (2 Bft)
08.04.2016 15:54 4,2 C 4,0 C 79 % 1009,5 hPa 0,0 mm 7,2 km/h (2 Bft) O-NO 67 0 min 0,9 C 10,7 km/h (2 Bft)
08.04.2016 15:55 4,2 C 4,0 C 79 % 1009,5 hPa 0,0 mm 7,2 km/h (2 Bft) O-NO 67 0 min 0,9 C 10,7 km/h (2 Bft)
08.04.2016 16:00 4,1 C 4,1 C 79 % 1009,5 hPa 0,0 mm 5,4 km/h (1 Bft) NO 45 0 min 0,8 C 3,9 km/h (1 Bft)
08.04.2016 16:05 3,9 C 3,9 C 80 % 1009,5 hPa 0,0 mm 6,0 km/h (2 Bft) NO 45 0 min 0,8 C 4,2 km/h (1 Bft)
08.04.2016 16:10 3,9 C 3,9 C 80 % 1009,3 hPa 0,0 mm 6,3 km/h (2 Bft) N-NO 22 0 min 0,8 C 8,6 km/h (2 Bft)
08.04.2016 16:15 3,8 C 3,9 C 80 % 1009,3 hPa 0,0 mm 4,5 km/h (1 Bft) N-NO 22 0 min 0,7 C 0,0 km/h (0 Bft)
08.04.2016 16:20 3,8 C 3,9 C 81 % 1009,3 hPa 0,0 mm 3,9 km/h (1 Bft) NO 45 0 min 0,8 C 0,0 km/h (0 Bft)
08.04.2016 16:25 3,8 C 4,0 C 81 % 1009,3 hPa 0,0 mm 3,3 km/h (1 Bft) N-NO 22 0 min 0,8 C 4,8 km/h (1 Bft)
08.04.2016 16:30 3,8 C 4,0 C 81 % 1009,3 hPa 0,0 mm 3,9 km/h (1 Bft) O-NO 67 0 min 0,8 C 6,9 km/h (2 Bft)
08.04.2016 16:35 3,7 C 3,8 C 81 % 1009,3 hPa 0,0 mm 3,9 km/h (1 Bft) N-NO 22 0 min 0,7 C 5,4 km/h (1 Bft)
08.04.2016 16:40 3,7 C 3,8 C 81 % 1009,3 hPa 0,0 mm 4,5 km/h (1 Bft) N-NO 22 0 min 0,7 C 6,0 km/h (2 Bft)
08.04.2016 16:45 3,7 C 3,8 C 81 % 1009,3 hPa 0,0 mm 3,0 km/h (1 Bft) N-NW 337 0 min 0,7 C 3,0 km/h (1 Bft)
08.04.2016 16:50 3,7 C 3,8 C 82 % 1009,1 hPa 0,0 mm 2,1 km/h (1 Bft) NO 45 0 min 0,9 C 3,0 km/h (1 Bft)
08.04.2016 16:55 3,8 C 3,8 C 82 % 1009,1 hPa 0,0 mm 2,7 km/h (1 Bft) O 90 0 min 1,0 C 0,0 km/h (0 Bft)
08.04.2016 17:00 3,8 C 3,8 C 82 % 1009,1 hPa 0,0 mm 2,4 km/h (1 Bft) NO 45 0 min 1,0 C 4,5 km/h (1 Bft)
08.04.2016 17:05 3,8 C 3,8 C 82 % 1009,1 hPa 0,0 mm 2,4 km/h (1 Bft) N-NO 22 0 min 1,0 C 0,0 km/h (0 Bft)
08.04.2016 17:10 3,8 C 3,8 C 82 % 1009,0 hPa 0,0 mm 3,9 km/h (1 Bft) NO 45 0 min 1,0 C 8,3 km/h (2 Bft)
08.04.2016 17:15 3,7 C 3,7 C 82 % 1009,0 hPa 0,0 mm 4,8 km/h (1 Bft) N-NO 22 0 min 0,9 C 0,0 km/h (0 Bft)
08.04.2016 17:20 3,7 C 3,7 C 82 % 1009,0 hPa 0,0 mm 3,9 km/h (1 Bft) O 90 0 min 0,9 C 4,2 km/h (1 Bft)
08.04.2016 17:25 3,7 C 3,6 C 82 % 1009,0 hPa 0,0 mm 3,9 km/h (1 Bft) N-NO 22 0 min 0,9 C 6,3 km/h (2 Bft)
08.04.2016 17:30 3,6 C 3,4 C 82 % 1009,1 hPa 0,0 mm 5,7 km/h (1 Bft) NO 45 0 min 0,8 C 5,4 km/h (1 Bft)
08.04.2016 17:35 3,6 C 3,4 C 82 % 1009,1 hPa 0,0 mm 3,0 km/h (1 Bft) O-NO 67 0 min 0,8 C 0,0 km/h (0 Bft)
08.04.2016 17:40 3,6 C 3,3 C 83 % 1009,1 hPa 0,0 mm 1,5 km/h (1 Bft) N-NO 22 0 min 1,0 C 3,6 km/h (1 Bft)
08.04.2016 17:45 3,6 C 3,4 C 84 % 1009,1 hPa 0,0 mm 0,6 km/h (0 Bft) NO 45 0 min 1,2 C 3,9 km/h (1 Bft)
08.04.2016 17:50 3,6 C 3,4 C 85 % 1009,0 hPa 0,0 mm 1,2 km/h (1 Bft) O-NO 67 0 min 1,3 C 3,3 km/h (1 Bft)
08.04.2016 17:55 3,6 C 3,4 C 85 % 1009,0 hPa 0,0 mm 3,3 km/h (1 Bft) NO 45 0 min 1,3 C 8,3 km/h (2 Bft)
08.04.2016 18:00 3,6 C 3,3 C 85 % 1009,0 hPa 0,0 mm 3,6 km/h (1 Bft) N-NO 22 0 min 1,3 C 0,0 km/h (0 Bft)
08.04.2016 18:05 3,6 C 3,3 C 85 % 1009,0 hPa 0,0 mm 3,0 km/h (1 Bft) O-NO 67 0 min 1,3 C 5,4 km/h (1 Bft)
08.04.2016 18:10 3,6 C 3,3 C 85 % 1009,1 hPa 0,0 mm 1,5 km/h (1 Bft) O-NO 67 0 min 1,3 C 0,0 km/h (0 Bft)
08.04.2016 18:15 3,5 C 3,3 C 85 % 1009,1 hPa 0,0 mm 0,6 km/h (0 Bft) O 90 0 min 1,2 C 0,0 km/h (0 Bft)
08.04.2016 18:20 3,5 C 3,3 C 85 % 1009,1 hPa 0,0 mm 0,0 km/h (0 Bft) NO 45 0 min 1,2 C 0,0 km/h (0 Bft)
08.04.2016 18:25 3,5 C 3,3 C 85 % 1009,1 hPa 0,0 mm 0,0 km/h (0 Bft) O 90 0 min 1,2 C 0,0 km/h (0 Bft)
08.04.2016 18:30 3,4 C 3,2 C 85 % 1008,9 hPa 0,0 mm 0,0 km/h (0 Bft) O-SO 112 0 min 1,1 C 0,0 km/h (0 Bft)
08.04.2016 18:35 3,4 C 3,2 C 85 % 1008,9 hPa 0,0 mm 0,0 km/h (0 Bft) O-SO 112 0 min 1,1 C 0,0 km/h (0 Bft)
08.04.2016 18:40 3,4 C 3,2 C 86 % 1008,9 hPa 0,0 mm 0,0 km/h (0 Bft) SO 135 0 min 1,3 C 0,0 km/h (0 Bft)
08.04.2016 18:45 3,4 C 3,2 C 86 % 1008,9 hPa 0,0 mm 0,0 km/h (0 Bft) S-SO 157 0 min 1,3 C 0,0 km/h (0 Bft)
08.04.2016 18:50 3,3 C 3,1 C 86 % 1008,9 hPa 0,0 mm 0,0 km/h (0 Bft) SO 135 0 min 1,2 C 0,0 km/h (0 Bft)
08.04.2016 18:53 0,0 C 3,1 C 86 % 1008,9 hPa 0,0 mm 0,0 km/h (0 Bft) S-SO 157 0 min -2,1 C 0,0 km/h (0 Bft)
08.04.2016 18:55 0,0 C 3,1 C 86 % 1008,9 hPa 0,0 mm 0,0 km/h (0 Bft) S-SO 157 0 min -2,1 C 0,0 km/h (0 Bft)
08.04.2016 19:00 0,0 C 3,1 C 86 % 1008,9 hPa 0,0 mm 0,0 km/h (0 Bft) S-SO 157 0 min -2,1 C 0,0 km/h (0 Bft)
08.04.2016 19:05 0,0 C 3,1 C 86 % 1008,9 hPa 0,0 mm 0,0 km/h (0 Bft) SO 135 0 min -2,1 C 0,0 km/h (0 Bft)
08.04.2016 19:10 0,0 C 3,1 C 86 % 1008,7 hPa 0,0 mm 0,0 km/h (0 Bft) SO 135 0 min -2,1 C 0,0 km/h (0 Bft)
08.04.2016 19:15 0,0 C 3,1 C 86 % 1008,7 hPa 0,0 mm 0,0 km/h (0 Bft) S-SO 157 0 min -2,1 C 0,0 km/h (0 Bft)
08.04.2016 19:20 0,0 C 3,1 C 86 % 1008,7 hPa 0,0 mm 0,0 km/h (0 Bft) S-SO 157 0 min -2,1 C 0,0 km/h (0 Bft)
08.04.2016 19:25 0,0 C 3,1 C 86 % 1008,7 hPa 0,0 mm 0,0 km/h (0 Bft) S 180 0 min -2,1 C 0,0 km/h (0 Bft)
08.04.2016 19:30 0,0 C 3,0 C 86 % 1009,0 hPa 0,0 mm 0,0 km/h (0 Bft) O-SO 112 0 min -2,1 C 0,0 km/h (0 Bft)
08.04.2016 19:35 0,0 C 3,0 C 86 % 1009,0 hPa 0,0 mm 0,0 km/h (0 Bft) S 180 0 min -2,1 C 0,0 km/h (0 Bft)
08.04.2016 19:40 0,0 C 3,0 C 86 % 1009,0 hPa 0,0 mm 0,0 km/h (0 Bft) S-SW 202 0 min -2,1 C 0,0 km/h (0 Bft)
08.04.2016 19:45 0,0 C 3,1 C 86 % 1009,0 hPa 0,0 mm 0,0 km/h (0 Bft) W-SW 247 0 min -2,1 C 0,0 km/h (0 Bft)
08.04.2016 19:50 0,0 C 3,1 C 86 % 1009,0 hPa 0,7 mm 0,0 km/h (0 Bft) SW 225 0 min -2,1 C 0,0 km/h (0 Bft)
08.04.2016 19:55 0,0 C 3,0 C 86 % 1009,0 hPa 0,0 mm 0,0 km/h (0 Bft) S-SW 202 0 min -2,1 C 0,0 km/h (0 Bft)
08.04.2016 20:00 0,0 C 3,0 C 87 % 1009,0 hPa 0,0 mm 0,0 km/h (0 Bft) SO 135 0 min -1,9 C 0,0 km/h (0 Bft)
08.04.2016 20:05 3,1 C 2,9 C 87 % 1009,0 hPa 0,0 mm 0,0 km/h (0 Bft) SO 135 0 min 1,2 C 0,0 km/h (0 Bft)
08.04.2016 20:10 3,1 C 2,9 C 87 % 1009,2 hPa 0,0 mm 0,0 km/h (0 Bft) S-SO 157 0 min 1,2 C 0,0 km/h (0 Bft)
08.04.2016 20:15 3,1 C 2,9 C 87 % 1009,2 hPa 0,0 mm 0,9 km/h (0 Bft) W-SW 247 0 min 1,2 C 3,0 km/h (1 Bft)
08.04.2016 20:20 3,1 C 2,9 C 88 % 1009,2 hPa 0,0 mm 0,9 km/h (0 Bft) SO 135 0 min 1,3 C 0,0 km/h (0 Bft)
08.04.2016 20:25 3,0 C 2,9 C 85 % 1009,2 hPa 0,0 mm 0,0 km/h (0 Bft) SO 135 0 min 0,7 C 0,0 km/h (0 Bft)
08.04.2016 20:30 3,0 C 2,9 C 85 % 1009,2 hPa 0,0 mm 0,0 km/h (0 Bft) SO 135 0 min 0,7 C 0,0 km/h (0 Bft)
08.04.2016 20:35 3,0 C 2,8 C 88 % 1009,2 hPa 0,7 mm 0,0 km/h (0 Bft) O-SO 112 0 min 1,2 C 0,0 km/h (0 Bft)
08.04.2016 20:40 2,9 C 2,8 C 85 % 1009,2 hPa 0,0 mm 0,3 km/h (0 Bft) W 270 0 min 0,6 C 0,0 km/h (0 Bft)
08.04.2016 20:45 2,9 C 2,8 C 86 % 1009,2 hPa 0,0 mm 0,3 km/h (0 Bft) O-NO 67 0 min 0,8 C 0,0 km/h (0 Bft)
08.04.2016 20:50 2,9 C 2,7 C 88 % 1009,4 hPa 0,0 mm 0,0 km/h (0 Bft) S-SO 157 0 min 1,1 C 0,0 km/h (0 Bft)
08.04.2016 20:55 2,8 C 2,7 C 86 % 1009,4 hPa 0,0 mm 0,0 km/h (0 Bft) SO 135 0 min 0,7 C 0,0 km/h (0 Bft)
08.04.2016 21:00 2,8 C 2,7 C 86 % 1009,4 hPa 0,0 mm 0,0 km/h (0 Bft) S-SO 157 0 min 0,7 C 0,0 km/h (0 Bft)
08.04.2016 21:05 2,7 C 2,6 C 86 % 1009,4 hPa 0,0 mm 0,3 km/h (0 Bft) O 90 0 min 0,6 C 0,0 km/h (0 Bft)
08.04.2016 21:10 2,7 C 2,5 C 86 % 1009,3 hPa 0,0 mm 0,9 km/h (0 Bft) S-SO 157 0 min 0,6 C 0,0 km/h (0 Bft)
08.04.2016 21:15 2,7 C 2,5 C 86 % 1009,3 hPa 0,0 mm 0,6 km/h (0 Bft) N 360 0 min 0,6 C 0,0 km/h (0 Bft)
08.04.2016 21:20 2,7 C 2,5 C 88 % 1009,3 hPa 0,0 mm 0,3 km/h (0 Bft) W 270 0 min 0,9 C 0,0 km/h (0 Bft)
08.04.2016 21:25 2,7 C 2,4 C 88 % 1009,3 hPa 0,0 mm 0,0 km/h (0 Bft) O-NO 67 0 min 0,9 C 0,0 km/h (0 Bft)
08.04.2016 21:30 2,6 C 2,4 C 86 % 1009,2 hPa 0,0 mm 0,0 km/h (0 Bft) W-SW 247 0 min 0,5 C 0,0 km/h (0 Bft)
08.04.2016 21:35 2,6 C 2,4 C 86 % 1009,2 hPa 0,0 mm 0,0 km/h (0 Bft) SO 135 0 min 0,5 C 0,0 km/h (0 Bft)
08.04.2016 21:40 2,6 C 2,4 C 86 % 1009,2 hPa 0,0 mm 0,0 km/h (0 Bft) NO 45 0 min 0,5 C 0,0 km/h (0 Bft)
08.04.2016 21:45 2,6 C 2,4 C 86 % 1009,2 hPa 0,7 mm 0,0 km/h (0 Bft) O 90 0 min 0,5 C 0,0 km/h (0 Bft)
08.04.2016 21:50 2,6 C 2,5 C 86 % 1009,2 hPa 0,0 mm 0,0 km/h (0 Bft) O-SO 112 0 min 0,5 C 0,0 km/h (0 Bft)
08.04.2016 21:53 2,6 C 2,5 C 86 % 1009,2 hPa 0,0 mm 0,0 km/h (0 Bft) NO 45 0 min 0,5 C 0,0 km/h (0 Bft)
08.04.2016 21:56 2,6 C 2,5 C 86 % 1009,2 hPa 0,0 mm 0,0 km/h (0 Bft) NO 45 0 min 0,5 C 0,0 km/h (0 Bft)
08.04.2016 22:00 2,6 C 2,5 C 86 % 1009,2 hPa 0,0 mm 0,0 km/h (0 Bft) O-SO 112 0 min 0,5 C 0,0 km/h (0 Bft)
08.04.2016 22:05 2,6 C 2,5 C 86 % 1009,2 hPa 0,0 mm 0,0 km/h (0 Bft) NO 45 0 min 0,5 C 0,0 km/h (0 Bft)
08.04.2016 22:10 2,6 C 2,5 C 86 % 1009,2 hPa 0,0 mm 0,3 km/h (0 Bft) S-SO 157 0 min 0,5 C 0,0 km/h (0 Bft)
08.04.2016 22:15 2,6 C 2,5 C 86 % 1009,2 hPa 0,0 mm 0,3 km/h (0 Bft) SO 135 0 min 0,5 C 0,0 km/h (0 Bft)
08.04.2016 22:20 2,6 C 2,5 C 86 % 1009,2 hPa 0,0 mm 0,0 km/h (0 Bft) O 90 0 min 0,5 C 0,0 km/h (0 Bft)
08.04.2016 22:25 2,6 C 2,5 C 86 % 1009,2 hPa 0,0 mm 0,0 km/h (0 Bft) NO 45 0 min 0,5 C 0,0 km/h (0 Bft)
08.04.2016 22:30 2,6 C 2,4 C 89 % 1009,2 hPa 0,0 mm 0,0 km/h (0 Bft) O-SO 112 0 min 1,0 C 0,0 km/h (0 Bft)
08.04.2016 22:35 2,6 C 2,5 C 86 % 1009,2 hPa 0,0 mm 0,0 km/h (0 Bft) S-SO 157 0 min 0,5 C 0,0 km/h (0 Bft)
08.04.2016 22:40 2,6 C 2,5 C 86 % 1009,2 hPa 0,0 mm 0,0 km/h (0 Bft) S 180 0 min 0,5 C 0,0 km/h (0 Bft)
08.04.2016 22:45 2,6 C 2,5 C 86 % 1009,2 hPa 0,0 mm 0,0 km/h (0 Bft) O 90 0 min 0,5 C 0,0 km/h (0 Bft)
08.04.2016 22:50 2,6 C 2,4 C 89 % 1009,1 hPa 0,0 mm 0,0 km/h (0 Bft) O-SO 112 0 min 1,0 C 0,0 km/h (0 Bft)
08.04.2016 22:55 2,6 C 2,4 C 89 % 1009,1 hPa 0,0 mm 0,0 km/h (0 Bft) S 180 0 min 1,0 C 0,0 km/h (0 Bft)
08.04.2016 23:00 2,5 C 2,4 C 86 % 1009,1 hPa 0,0 mm 0,0 km/h (0 Bft) W-SW 247 0 min 0,4 C 0,0 km/h (0 Bft)
08.04.2016 23:05 2,5 C 2,4 C 86 % 1009,1 hPa 0,0 mm 0,0 km/h (0 Bft) N-NO 22 0 min 0,4 C 0,0 km/h (0 Bft)
08.04.2016 23:10 2,6 C 2,4 C 86 % 1009,0 hPa 0,0 mm 0,0 km/h (0 Bft) S-SO 157 0 min 0,5 C 0,0 km/h (0 Bft)
08.04.2016 23:15 2,6 C 2,4 C 86 % 1009,0 hPa 0,7 mm 0,0 km/h (0 Bft) NO 45 0 min 0,5 C 0,0 km/h (0 Bft)
08.04.2016 23:20 2,6 C 2,4 C 86 % 1009,0 hPa 0,0 mm 0,0 km/h (0 Bft) SW 225 0 min 0,5 C 0,0 km/h (0 Bft)
08.04.2016 23:25 2,5 C 2,4 C 86 % 1009,0 hPa 0,0 mm 0,0 km/h (0 Bft) NO 45 0 min 0,4 C 0,0 km/h (0 Bft)
08.04.2016 23:30 2,5 C 2,4 C 86 % 1008,9 hPa 0,0 mm 0,0 km/h (0 Bft) W 270 0 min 0,4 C 0,0 km/h (0 Bft)
08.04.2016 23:35 2,5 C 2,3 C 89 % 1008,9 hPa 0,0 mm 0,0 km/h (0 Bft) S-SW 202 0 min 0,9 C 0,0 km/h (0 Bft)
08.04.2016 23:40 2,4 C 2,3 C 86 % 1008,9 hPa 0,0 mm 0,0 km/h (0 Bft) W-SW 247 0 min 0,3 C 0,0 km/h (0 Bft)
08.04.2016 23:45 2,4 C 2,3 C 86 % 1008,9 hPa 0,0 mm 0,0 km/h (0 Bft) S 180 0 min 0,3 C 0,0 km/h (0 Bft)
08.04.2016 23:50 2,4 C 2,3 C 86 % 1008,8 hPa 0,0 mm 0,0 km/h (0 Bft) O 90 0 min 0,3 C 0,0 km/h (0 Bft)
08.04.2016 23:55 2,4 C 2,2 C 89 % 1008,8 hPa 0,0 mm 0,0 km/h (0 Bft) SW 225 0 min 0,8 C 0,0 km/h (0 Bft)
_ Min-Zeit 20:00 07:00 16:00 19:25 - 23:55 - - - 19:55 23:55
Minimum _ 0,0 C 1,3 C 79 % 1008,7 hPa - 0,0 km/h (0 Bft) - - - -2,1 C 0,0 km/h (0 Bft)
_ Max-Zeit 15:30 14:00 23:55 01:05 23:15 11:15 - - 23:55 14:35 12:05
Maximum _ 4,5 C 6,0 C 89 % 1013,2 hPa 0,7 mm 9,5 km/h
O-NO (2 Bft)
- - 0 min 1,7 C 17,6 km/h
N-NO (3 Bft)
Durchschnitt _ 2,8 C 3,0 C 85 % 1010,4 hPa #5,5 mm 2,8 km/h (1 Bft) NO - #0 min. 0,6 C 3,4 km/h (1 Bft)